Air Quality Table

TIMESTAMP NO2 SO2 PM10 PM2.5 TEMP HUM AIRPRES WS WD NO
2022-11-26 09:00 36.09 µg/m3 0.91 µg/m3 22.4 µg/m3 10.18 µg/m3 17.74 °C 82.32 % 1,013.97 mbar 1.9 m/s 189.63 Deg 12.52 µg/m3
2022-11-26 01:00 57.78 µg/m3 2.1 µg/m3 45.54 µg/m3 20.22 µg/m3 16.35 °C 79.27 % 1,017.95 mbar 1.57 m/s 224.46 Deg 36.66 µg/m3
2022-11-25 17:00 11.24 µg/m3 0.54 µg/m3 27.21 µg/m3 7.98 µg/m3 18.92 °C 63.28 % 1,018.55 mbar 1.56 m/s 314.75 Deg 6.7 µg/m3
2022-11-25 09:00 43.95 µg/m3 1.26 µg/m3 26.02 µg/m3 10.96 µg/m3 16.61 °C 78.87 % 1,017.62 mbar 1.95 m/s 224.87 Deg 25.47 µg/m3
2022-11-25 01:00 22.14 µg/m3 -0.08 µg/m3 26.06 µg/m3 11.85 µg/m3 17.88 °C 76.78 % 1,015.45 mbar 3.14 m/s 256.98 Deg 3.35 µg/m3
2022-11-24 17:00 10.84 µg/m3 -0.1 µg/m3 20.56 µg/m3 7.79 µg/m3 19.55 °C 71.38 % 1,012.99 mbar 5.39 m/s 268.36 Deg 4.49 µg/m3
2022-11-24 09:00 11.48 µg/m3 -0.14 µg/m3 30.96 µg/m3 15.96 µg/m3 18.82 °C 85.68 % 1,010.29 mbar 4.24 m/s 264.73 Deg 3.9 µg/m3
2022-11-24 01:00 14.44 µg/m3 -0.4 µg/m3 12.35 µg/m3 5.25 µg/m3 18.4 °C 81.78 % 1,009.09 mbar 5.8 m/s 239.37 Deg 4.3 µg/m3
2022-11-23 17:00 13.18 µg/m3 -1.14 µg/m3 13.1 µg/m3 5.19 µg/m3 18.84 °C 65.14 % 1,007.88 mbar 7.88 m/s 239.55 Deg 7.42 µg/m3
2022-11-23 09:00 20.14 µg/m3 0.61 µg/m3 16.08 µg/m3 6.52 µg/m3 16.58 °C 65.31 % 1,008.25 mbar 4.71 m/s 240.25 Deg 7.32 µg/m3
2022-11-23 01:00 10.1 µg/m3 -0.22 µg/m3 13.5 µg/m3 5.49 µg/m3 17.24 °C 59.97 % 1,009.07 mbar 6.47 m/s 242.2 Deg 1.99 µg/m3
2022-11-22 17:00 14.17 µg/m3 0.01 µg/m3 20.27 µg/m3 6.8 µg/m3 19.17 °C 62.89 % 1,006.64 mbar 11.42 m/s 228.35 Deg 4.97 µg/m3
2022-11-22 09:00 31.38 µg/m3 0.86 µg/m3 17.06 µg/m3 6.42 µg/m3 18.91 °C 58.62 % 1,009.49 mbar 9.07 m/s 205.5 Deg 12.06 µg/m3
2022-11-22 01:00 47.78 µg/m3 1.15 µg/m3 15.22 µg/m3 5.74 µg/m3 18.05 °C 66.16 % 1,014.28 mbar 4.16 m/s 213.08 Deg 17.64 µg/m3
2022-11-21 17:00 17.14 µg/m3 0.7 µg/m3 16.59 µg/m3 6.21 µg/m3 17.42 °C 72.23 % 1,014.98 mbar 4.38 m/s 264.88 Deg 5.84 µg/m3
2022-11-21 09:00 8.38 µg/m3 -0.32 µg/m3 16.59 µg/m3 6.22 µg/m3 16.7 °C 67.4 % 1,013.43 mbar 4.04 m/s 259.64 Deg 2.31 µg/m3
2022-11-21 01:00 2.33 µg/m3 -0.74 µg/m3 15.21 µg/m3 5.94 µg/m3 17.61 °C 64.04 % 1,011.04 mbar 5.2 m/s 255.79 Deg 0.7 µg/m3
2022-11-20 17:00 9.9 µg/m3 -1.47 µg/m3 15.27 µg/m3 5.43 µg/m3 16.28 °C 75.54 % 1,007.40 mbar 6.07 m/s 244.14 Deg 5.74 µg/m3
2022-11-20 09:00 26.16 µg/m3 -0.85 µg/m3 45.97 µg/m3 15.89 µg/m3 19.34 °C 74.47 % 1,006.29 mbar 2.82 m/s 237.44 Deg 8.98 µg/m3
2022-11-20 01:00 20.13 µg/m3 -0.41 µg/m3 63.54 µg/m3 21.33 µg/m3 22.01 °C 74.68 % 1,007.44 mbar 4.11 m/s 231.85 Deg 8.23 µg/m3

It is to be noted that the data is provisional and subject to quality assurance procedures. For validated data kindly refer your request to contact.air@era.org.mt